Location: Newark
(49.3808°N, 3.1844°E)
Time: 23:55:37
(UTC+00:00)

Courier 1B - All Passes

Search period start: 12 November 2019 00:00
Search period end: 22 November 2019 00:00
Orbit: 963 x 1209 km, 28.3° (Epoch: 12 November)

Date Brightness Start Highest point End Pass type
(mag) Time Alt. Az. Time Alt. Az. Time Alt. Az.
12 Nov - 10:37:48 10° SSW 10:39:05 11° S 10:40:23 10° S daylight
13 Nov - 09:44:40 10° S 09:45:43 10° S 09:46:46 10° SSE daylight
15 Nov - 09:51:20 10° S 09:51:29 10° S 09:51:38 10° S daylight
16 Nov - 08:57:06 10° S 08:58:08 10° S 08:59:09 10° S daylight
17 Nov - 08:03:44 10° S 08:04:46 10° S 08:05:47 10° SSE daylight
18 Nov - 07:11:09 10° S 07:11:23 10° S 07:11:39 10° S daylight
19 Nov - 08:09:35 10° SSW 08:10:32 10° S 08:11:28 10° S daylight
20 Nov - 07:15:34 10° SSW 07:17:09 11° S 07:18:44 10° SSE daylight
21 Nov - 06:22:01 10° SSW 06:23:46 11° S 06:25:30 10° SSE visible
